Regional Weather Roundup
Issued by NWS

Home | Current Version | Previous Version | Text Only | Print | Product List | Glossary On
Versions: 1 2 3 4 5 6 7 8 9 10 11 12 13 14 15 16 17 18 19 20 21 22 23 24 25 26 27 28 29 30 31 32 33 34 35 36 37 38 39 40 41 42 43 44 45 46 47 48 49 50
000
ASCA44 KEWX 281620
RWRMX

LATIN AMERICA AND CARIBBEAN REGIONAL WEATHER ROUNDUP
NATIONAL WEATHER SERVICE AUSTIN/SAN ANTONIO TX
1100 AM CDT SAT MAR 28 2015

NOTE: "FAIR" INDICATED FEW OR NO CLOUDS BELOW 12,000 FEET WITH NO
SIGNIFICANT WEATHER AND/OR OBSTRUCTIONS TO VISIBILITY.

BAJA CALIFORNIA

CITY           SKY/WX    TMP DP  RH WIND       PRES   REMARKS
LORETO         SUNNY     81  75  83 CALM      29.97R
LA PAZ         MOSUNNY   75  48  38 S9        30.03S
MEXICALI       SUNNY     73  41  31 CALM      30.01R
S.J. DEL CABO  PTSUNNY   77  46  33 CALM      30.03R
TIJUANA        SUNNY     64  50  59 E5        30.10S

NORTHWESTERN MEXICO

CITY           SKY/WX    TMP DP  RH WIND       PRES   REMARKS
CULIACAN       PTSUNNY   75  64  69 CALM      30.01R
DURANGO        SUNNY     59  32  36 CALM      30.38S
GUAYMAS          N/A    N/A N/A N/A MISG        N/A
HERMOSILLO       N/A    N/A N/A N/A MISG        N/A
CD. JUAREZ     SUNNY     68  39  34 CALM      30.15R
LOS MOCHIS     SUNNY     75  66  73 CALM      30.00R
OBREGON        SUNNY     79  46  31 CALM      29.95S

NORTHEASTERN MEXICO

CITY           SKY/WX    TMP DP  RH WIND       PRES   REMARKS
CHIHUAHUA      SUNNY     66  28  24 CALM      30.28S
MATAMOROS      SUNNY     72  61  68 SE12      30.23S
MONCLOVA       SUNNY     72  45  37 CALM      30.17S
MONTERREY      SUNNY     68  45  42 N3        30.19S
NUEVO LAREDO   SUNNY     70  48  46 S6        30.18S
PIEDRAS NEGRAS SUNNY     70  45  40 SE7       30.15S
REYNOSA        SUNNY     68  52  56 S10       30.20S
SALTILLO       SUNNY     72  50  46 S7        30.31S
TORREON        SUNNY     64  45  48 CALM      30.28R
CD. VICTORIA   SUNNY     70  55  60 S14       30.22S

WESTERN MEXICO

CITY           SKY/WX    TMP DP  RH WIND       PRES   REMARKS
AGUASCALIENTES MOSUNNY   61  43  51 W6        30.39S
COLIMA         MOSUNNY   79  50  36 CALM      30.13S
DEL BAJIO      PTSUNNY   63  50  63 CALM      30.43R
GUADALAJARA    PTSUNNY   68  48  49 CALM      30.30R
MANZANILLO     MOSUNNY   77  72  83 SE8       30.00S
MAZATLAN       MOSUNNY   73  64  73 E7        30.00S
P. VALLARTA    MOSUNNY   77  66  69 CALM      30.01R
URUAPAN        PTSUNNY   68  55  64 CALM      30.31R
ZACATECAS      SUNNY     59  45  58 N6        30.40S

CENTRAL MEXICO

CITY           SKY/WX    TMP DP  RH WIND       PRES   REMARKS
CUERNAVACA     CLOUDY    68  52  56 CALM      30.31R
MEXICO CITY    PTSUNNY   59  48  67 N2        30.45R
MORELIA        PTSUNNY   61  54  77 CALM      30.37S
POZA RICA      PTSUNNY   68  61  77 CALM      30.18R
PUEBLA         CLOUDY    57  45  62 N3        30.45R
QUERETARO      PTSUNNY   57  52  82 SE8       30.43F
S. LUIS POTOSI MOSUNNY   59  45  58 CALM      30.38R
TAMPICO        MOSUNNY   73  55  53 SE7       30.25R
TOLUCA         PTSUNNY   63  43  48 CALM      30.51R

SOUTHERN MEXICO

CITY           SKY/WX    TMP DP  RH WIND       PRES   REMARKS
ACAPULCO       PTSUNNY   82  73  74 W8        30.00R
B. DE HUATULCO MOSUNNY   84  75  74 CALM      30.04S HX  92
OAXACA         PTSUNNY   64  52  63 N6        30.38F
P. ESCONDIDO   PTSUNNY   82  72  69 E12       30.11S
VERACRUZ       CLOUDY    72  55  56 NW5       30.26R
ZIHUATANEJO    PTSUNNY   81  70  69 CALM      30.02R

YUCATAN PENINSULA

CITY           SKY/WX    TMP DP  RH WIND       PRES   REMARKS
CAMPECHE       MOSUNNY   77  63  61 NE18      30.14S
CANCUN         PTSUNNY   79  63  57 NE9G23    30.14R
CHETUMAL       PTSUNNY   77  68  73 N12       30.12S
CD. DEL CARMEN PTSUNNY   81  66  61 N13       30.17R
COZUMEL        PTSUNNY   75  66  73 NE13G24   30.12S
MERIDA         PTSUNNY   81  59  47 NE12      30.17R
MINATITLAN     PTSUNNY   75  68  78 N12       30.20R
TAPACHULA      PTSUNNY   86  79  79 S7        30.00S HX  99
TUX. GUTIERREZ PTSUNNY   75  57  53 NW16      30.19S
VILLAHERMOSA   CLOUDY    72  68  88 S7        30.23R

CENTRAL AMERICA

CITY           SKY/WX    TMP DP  RH WIND       PRES   REMARKS
BELIZE CITY    PTSUNNY   81  73  78 N10       30.12R
MANAGUA        MOSUNNY   88  68  51 E18       30.00R HX  91

CARIBBEAN

CITY           SKY/WX    TMP DP  RH WIND       PRES   REMARKS
ARUBA          MOSUNNY   88  75  66 E23       30.00S HX  97
CURACAO        MOSUNNY   86  73  66 E16       30.03F HX  93
KINGSTON       MOSUNNY   86  73  66 SE22      30.03F HX  93
NASSAU         PTSUNNY   73  59  60 N12       30.08R
SAN JUAN       MOSUNNY   88  64  45 SE6G20    30.15F
SANTO DOMINGO  MOSUNNY   86  72  62 SE9       30.12S HX  92
ST. CROIX      MOSUNNY   86  70  58 E16       30.15  HX  90
ST. KITTS      PTSUNNY   84  70  61 E16       30.15S
ST. MAARTEN    MOSUNNY   82  70  65 SE16      30.15
ST. THOMAS     SUNNY     82  70  65 SE14      30.15

$$



USA.gov is the U.S. government's official web portal to all federal, state and local government web resources and services.